Время (UTC), дата Ветер
(°,м/с) 
Видим.   Явления Облачность Т
(°С)
Тd
(°С)
f(%) Тe
(°С)
Pmin
(гПа)
dP
(гПа)
Po
(мм)
O2
(г/м3)
Тmin Tmax R s Состояние
почвы
00 01.06.16 080 (В) 10 км    5/0 верхняя 
[Ci fib]
+10.3 -0.2 48 +10  1022.5  0.4  756  294           
03 01.06.16 090 (В) 10 км    ясно 
+9.4 +1.2 57 +9  1023.6  0.7  757  295  +7.7        сухая 
06 01.06.16 090 (В) 10 км    3/3 1000 м 
[Cu hum]
+12.8 -0.5 40 +13  1023.5  0.7  757  291           
09 01.06.16 070 (В) 10 км    3/0 средняя 
[Ac cast]
+14.9 -0.2 36 +15  1023.1  -0.3  757  289           
12 01.06.16 040 (СВ) 3{10}  10 км    ясно 
+16.6 -0.3 32 +17  1022  -1  756  287           
15 01.06.16 090 (В) 10 км    ясно 
+16.4 -0.7 31 +17  1021.1  -0.9  755  287    +17.1       
18 01.06.16 090 (В) 10 км    ясно 
+13.5 +0.8 42 +15  1021.7  0.5  756  290           
21 01.06.16 070 (В) 10 км    ясно 
+11.7 +1.2 48 +13  1021.7  0.1  755  292           
00 02.06.16 тихо ()   10 км    ясно 
+8.1 +2.1 66 +8  1021.5  -0.5  755  295           
03 02.06.16 090 (В) 10 км    ясно 
+13.6 +2 45 +15  1021  0.1  755  289  +7.1        сухая 
06 02.06.16 320 (СЗ) 10 км    5/5 1000 м 
[Cu hum]
+16.9 +0.9 34 +18  1020.4  -0.5  755  286           
09 02.06.16 080 (В) 10 км    5/5 1000 м 
[Cu hum]
+19 +0.9 30 +20  1019  -1.3  754  284           
12 02.06.16 240 (ЮЗ) 10 км    5/5 1000 м 
[Cu hum]
+18.3 +0.4 30 +20  1017.4  -1.5  753  284           
15 02.06.16 320 (СЗ) 10 км    5/5 1000 м 
[Cu hum]
+19.9 +0.4 27 +21  1016  -1.3  752  282    +20.5       
18 02.06.16 тихо ()   10 км    4/0 средняя 
[Ac lent]
+14.5 +3.6 48 +15  1015.9  -0.3  751  287           
21 02.06.16 тихо ()   10 км    3/0 средняя 
[Ac lent]
+11.1 +4.2 62 +11  1015.1  -1  751  290           
00 03.06.16 тихо ()   10 км    5/0 средняя 
[Ac lent]
+9.8 +4.1 68 +10  1014  -1.1  750  291           
03 03.06.16 320 (СЗ) 10 км    8/0 средняя 
[Ac lent]
+12.7 +6.4 65 +14  1013.5  -0.4  749  287  +9.7        сухая 
06 03.06.16 300 (СЗ) 10 км    8/4 1000 м верхняя 
[Sc diur, vesp|Ci fib]
+18.9 +2.1 33 +20  1012.2  -0.9  749  282           
09 03.06.16 090 (В) 10 км    8/8 1000 м средняя, верхняя 
[Sc diur, vesp|Ac trans|Cs]
+18.7 +1 30 +20  1011.4  -0.9  748  282           
12 03.06.16 020 (С) 10 км    8/5 1000 м средняя, верхняя 
[Sc diur, vesp|Ac trans|Cs]
+21.5 +0.8 25 +22  1009.9  -1.3  747  279           
15 03.06.16 120 (ЮВ) 10 км    8/1 1000 м средняя 
[Sc diur, vesp|Ac cuf]
+19.7 +0.2 27 +21  1008.8  -1.2  746  280    +21.5       
18 03.06.16 тихо ()   10 км    3/0 средняя 
[Ac trans]
+14.6 +3.7 48 +15  1008.7  -0.3  746  285           
21 03.06.16 050 (СВ) 10 км    3/0 средняя 
[Ac trans]
+14.5 +6.5 59 +15  1007.8  -0.9  745  284           
00 04.06.16 270 (З) 10 км    9/0 средняя 
[Ac trans]
+13.3 +7.1 66 +15  1007.2  -0.7  745  285           
03 04.06.16 310 (СЗ) 10 км    9/0 средняя 
[Ac und]
+14.9 +8.6 66 +16  1006.5  -0.5  744  283  +12.4        сухая 
06 04.06.16 280 (З) 10 км    9/9 1000 м средняя 
[Cu hum|Ac trans]
+18.4 +8.8 54 +20  1005.8  -0.6  744  279           
09 04.06.16 260 (З) 10 км    8/8 1000 м средняя 
[Cu hum|Ac trans]
+21 +4.4 34 +21  1004.8  -0.8  743  277           
12 04.06.16 250 (З) 10 км    8/8 600 м кучево-дожд. 
[Cb cap]
+23.1 +3.9 29 +23  1003.5  -1.2  742  275           
15 04.06.16 250 (З) 10 км    8/8 600 м 
[Cu hum]
+21.4 +6.4 38 +21  1002.8  -0.7  742  276    +23.5       
18 04.06.16 150 (ЮВ) 10 км    3/0 средняя 
[Ac trans]
+17.8 +7.8 52 +19  1003.2  0.2  742  279           
21 04.06.16 160 (Ю) 10 км    8/0 средняя 
[Ac As]
+15.3 +6.9 57 +17  1002.4  -0.9  741  282           
00 05.06.16 тихо ()   10 км    5/0 средняя 
[Ac As]
+13.4 +6.7 64 +13  1002.1  -0.5  741  283           
03 05.06.16 200 (Ю) 10 км    5/0 средняя 
[Ac As]
+16.5 +8 57 +18  1001.8  -0.1  741  280  +13.1        сухая 
06 05.06.16 240 (ЮЗ) 10 км  в посл. час ливневой дождь  10/6 1000 м кучево-дожд., средняя 
[Cb cap|Ac As]
+15.6 +11.5 77 +19  1002.8  742  281           
09 05.06.16 250 (З) 10 км  в посл. час ливневой дождь  9/6 1000 м кучево-дожд., средняя 
[Cb cap|Ac lent]
+18.5 +11.6 64 +23  1002.9  0.2  742  278           
12 05.06.16 310 (СЗ) 2{11}  10 км  в посл. час ливневой дождь  10/6 600 м кучево-дожд., средняя 
[Cb cap|Ac lent]
+14.8 +12.1 84 +19  1004.3  1.2  743  282           
15 05.06.16 330 (СЗ) 10 км  {ливн. осадки}  9/6 1000 м кучево-дожд., средняя 
[Cb cap|Ac trans]
+16.6 +10 65 +18  1005.2  1.1  743  281    +19.7     
18 05.06.16 070 (В) 10 км    9/5 1000 м кучево-дожд., средняя 
[Cb cap|Ac trans]
+14.9 +9.9 72 +17  1006.7  1.4  745  283           
21 05.06.16 090 (В) 10 км    8/0 средняя 
[Ac trans]
+14 +10.1 77 +16  1007  0.3  745  284           
00 06.06.16 070 (В) 10 км    9/5 600 м кучево-дожд., средняя 
[Cb cap|As trans]
+12.6 +9 79 +13  1006.9  -0.2  745  285           
03 06.06.16 090 (В) 10 км  в посл. час ливневой дождь  10/10 600 м кучево-дожд. 
[Cb cap]
+11.7 +9.1 84 +11  1007.1  -0.1  745  286  +11.7    0.5    сухая 
06 06.06.16 090 (В) 10 км  {ливн. осадки}  10/10 600 м кучево-дожд. 
[Cb cap]
+13.3 +10.1 81 +15  1006.4  -0.6  744  284  +11.7         
09 06.06.16 090 (В) 10 км    10/10 300 м 
[Sc diur, vesp]
+13.7 +9.5 76 +15  1007.3  0.9  745  284           
12 06.06.16 080 (В) 10 км    9/9 300 м 
[Sc diur, vesp]
+17 +11.6 70 +21  1006.4  -0.7  744  280           
15 06.06.16 090 (В) 10 км    9/8 600 м кучево-дожд., средняя 
[Cb calv|Ac As]
+17.8 +12.6 72 +23  1005.4  -1  744  279    +19.2  0.5     
18 06.06.16 110 (В) 10 км  слаб. ливневой дождь, в посл. час гроза  10/10 300 м кучево-дожд. 
[Cb calv]
+14.5 +12.9 90 +20  1005.4  -0.2  743  282           
21 06.06.16 150 (ЮВ) 10 км  {ливн. осадки}  10/10 300 м кучево-дожд. 
[Cb cap]
+14.7 +13.3 91 +22  1004.2  -1.1  743  281           
00 07.06.16 тихо ()   10 км  {ливн. осадки}  10/8 300 м кучево-дожд., средняя 
[Cb cap|Ac As]
+14.4 +13 91 +20  1003.4  -0.9  742  281           
03 07.06.16 280 (З) 10 км    10/8 300 м кучево-дожд., средняя 
[Cb cap|Ac As]
+14.3 +12.8 91 +21  1003.2  -0.1  742  282  +14.1      влажная 
06 07.06.16 350 (С) 10 км  слаб. дождь{ливн. осадки}  10/10 400 м 
[Frnb|Ns]
+12.5 +10.5 88 +16  1003  -0.3  742  284  +12.4         
09 07.06.16 290 (З) 4000 м  ливневой дождь  10/9 420 м кучево-дожд., средняя 
[Cb cap|Ac und]
+12.5 +10.8 89 +14  1004  742  284           
12 07.06.16 320 (СЗ) 10 км  в посл. час ливневой дождь  10/8 300 м кучево-дожд., средняя, верхняя 
[Cb cap|Ac As|Ci ing]
+14.3 +10.9 80 +18  1003.5  -0.4  742  282           
15 07.06.16 240 (ЮЗ) 10 км  в посл. час ливневой дождь  9/9 540 м кучево-дожд., средняя 
[Cb cap|Ac As]
+14.5 +11.2 81 +19  1003.7  0.2  742  282    +14.7  11     
18 07.06.16 260 (З) 10 км  {ливн. осадки}  8/8 300 м кучево-дожд. 
[Cb calv]
+12.6 +9.9 84 +14  1004.4  0.6  743  284           
21 07.06.16 240 (ЮЗ) 10 км    6/3 300 м кучево-дожд., средняя 
[Cb calv|Ac trans]
+11.1 +8.8 86 +11  1005  0.5  743  286           
00 08.06.16 230 (ЮЗ) 10 км    3/1 1000 м кучево-дожд., средняя 
[Cb calv|Ac trans]
+8.8 +7.4 91 +10  1005.1  743  289           
03 08.06.16 230 (ЮЗ) 10 км    3/1 300 м средняя 
[Sc diur, vesp|Ac cuf]
+9.8 +6.2 78 +11  1005.6  743  288  +8.7        влажная 
06 08.06.16 240 (ЮЗ) 10 км    9/9 600 м кучево-дожд. 
[Cb cap]
+11.7 +4.1 60 +11  1005.8  0.3  744  287           
09 08.06.16 240 (ЮЗ) 10 км    9/9 1080 м кучево-дожд. 
[Cb cap]
+11.5 +4.6 63 +11  1006.2  0.3  744  287           
12 08.06.16 250 (З) 3{10}  10 км  ливневой дождь  9/9 840 м кучево-дожд. 
[Cb cap]
+11 +5.2 67 +11  1006.7  0.5  744  287           
15 08.06.16 230 (ЮЗ) 2{10}  10 км  {ливн. осадки}  9/8 1000 м кучево-дожд., средняя 
[Cb cap|Ac trans]
+11.3 +6 70 +12  1007  0.2  745  287    +13  0.8     
18 08.06.16 220 (ЮЗ) 10 км  {ливн. осадки}  8/8 300 м 
[Sc diur, vesp]
+8.8 +6.5 85 +10  1008.1  0.9  745  290           
21 08.06.16 240 (ЮЗ) 10 км    10/9 660 м средняя 
[Sc diur, vesp|Ac As]
+7.8 +5.5 85 +8  1008.4  0.3  746  291           
00 09.06.16 280 (З) 10 км  слаб. ливневой дождь  10/9 480 м кучево-дожд., средняя 
[Cb cap|Ac und]
+8.1 +6 87 +8  1008.9  0.5  746  291           
03 09.06.16 270 (З) 10 км  {ливн. осадки}  9/8 930 м кучево-дожд., средняя 
[Cb cap|Ac As]
+8.8 +6.3 84 +9  1010.6  1.7  747  291  +7.5      влажная 
06 09.06.16 240 (ЮЗ) 10 км  {ливн. осадки}  5/0 средняя, верхняя 
[Ac lent|Ci fib]
+12.5 +5.2 61 +12  1011.7  1.2  748  287           
09 09.06.16 250 (З) 10 км    6/6 1000 м средняя 
[Sc diur, vesp|Ac lent]
+15 +2.3 42 +15  1011.2  -0.4  748  285           
12 09.06.16 230 (ЮЗ) 10 км    9/6 1000 м кучево-дожд., средняя 
[Cb cap|Ac lent]
+16.5 +5.2 47 +17  1010.7  -0.4  748  283           
15 09.06.16 210 (ЮЗ) 10 км    8/5 1000 м средняя, верхняя 
[Sc diur, vesp|Ac lent|Ci fib]
+17 +6 48 +18  1010.9  0.2  748  283    +18.2       
18 09.06.16 150 (ЮВ) 10 км    5/5 1000 м 
[Sc diur, vesp]
+13.5 +7.6 67 +15  1011.5  0.5  748  286           
21 09.06.16 150 (ЮВ) 10 км    3/0 средняя 
[As op]
+11.8 +6.7 71 +13  1012.1  0.5  748  288           
00 10.06.16 150 (ЮВ) 10 км    9/9 1000 м 
[Sc diur, vesp]
+12.1 +6.3 68 +13  1012.3  0.2  749  288           
03 10.06.16 180 (Ю) 10 км    9/8 1000 м средняя 
[Sc diur, vesp|Ac trans]
+13.7 +7.7 67 +15  1012.8  0.6  749  286  +11.7        влажная 
06 10.06.16 230 (ЮЗ) 10 км    10/8 1500 м средняя 
[Sc|As op]
+14.8 +8.2 65 +16  1014  1.2  750  285           
09 10.06.16 260 (З) 10 км    9/0 средняя, верхняя 
[Ac As|Cs]
+18.7 +9.8 56 +21  1014.2  0.5  750  281           
12 10.06.16 300 (СЗ) 10 км    5/4 1000 м верхняя 
[Cu med, cong|Ci fib]
+21.1 +9.7 48 +22  1013.6  -0.5  750  279           
15 10.06.16 100 (В) 10 км  {ливн. осадки}  10/6 1000 м кучево-дожд., средняя, верхняя 
[Cb calv|Ac cuf|Ci ing]
+17.6 +13.1 75 +25  1014  0.3  750  281    +22.3  0.8     
18 10.06.16 130 (ЮВ) 10 км  в посл. час гроза{ливн. осадки}  10/8 600 м кучево-дожд., средняя 
[Cb calv|Ac cast]
+13.3 +12.2 93 +18  1015.8  1.6  751  286           
21 10.06.16 120 (ЮВ) н/о    8/6 600 м средняя 
[Sc diur, vesp|Ac lent]
+12.2 +11 92 +15  1015.8  0.1  751  288           
00 11.06.16 110 (В) 10 км    9/6 600 м средняя 
[Sc|Ac trans]
+12.4 +11.2 92 +17  1016.5  0.7  752  288           
03 11.06.16 130 (ЮВ) 10 км    5/0 средняя, верхняя 
[Ac lent|Cc]
+14.9 +12.9 88 +21  1016.9  0.5  752  285  +12.2    10    мокрая 
06 11.06.16 180 (Ю) 10 км    ясно 
+19.9 +12.3 62 +25  1016.8  0.2  752  280           
09 11.06.16 200 (Ю) 10 км  слаб. ливневой дождь  8/6 600 м кучево-дожд., средняя 
[Cb cap|Ac As]
+20.4 +9.8 51 +21  1016.5  -0.3  752  280           
12 11.06.16 180 (Ю) 10 км  {ливн. осадки}  5/5 1000 м 
[Cu med, cong]
+23.4 +7.3 36 +23  1015.5  -0.9  751  278           
15 11.06.16 170 (Ю) 10 км    3/0 средняя 
[Ac As]
+22.9 +6.1 34 +23  1014.9  -0.6  751  278    +23.9  0.3     
18 11.06.16 150 (ЮВ) 10 км    3/0 средняя 
[Ac cast]
+18.4 +9.8 57 +21  1015.6  0.5  751  282           
21 11.06.16 090 (В) 10 км    8/0 средняя 
[Ac As]
+17.1 +9.8 62 +20  1015.2  0.5  751  283           
00 12.06.16 120 (ЮВ) 10 км    8/0 средняя 
[Ac cast]
+15.1 +11.6 80 +19  1015  -0.3  751  284           
03 12.06.16 120 (ЮВ) 10 км    3/0 средняя 
[Ac trans]
+17.6 +11.5 67 +22  1014.7  0.1  751  282  +14.6        влажная 
06 12.06.16 160 (Ю) 10 км    3/0 
[]
+21.6 +11.8 54 +25  1013.6  -0.8  750  278           
09 12.06.16 180 (Ю) 10 км    10/6 600 м верхняя 
[Cu med, cong|Ci fib]
+24 +6.8 33 +24  1012.4  -1.1  749  276           
12 12.06.16 180 (Ю) 10 км    10/5 600 м кучево-дожд., верхняя 
[Cb cap|Cs]
+24.3 +6.9 33 +24  1010.9  -1.5  748  276           
15 12.06.16 280 (З) 10 км    9/6 600 м средняя, верхняя 
[Sc diur, vesp|Ac trans|Ci fib]
+20.1 +11.6 58 +23  1011.1  748  279    +24.6       
18 12.06.16 130 (ЮВ) 10 км    10/0 средняя 
[Ac und]
+17.6 +11.3 67 +22  1010.7  -0.5  748  281           
21 12.06.16 210 (ЮЗ) 10 км    10/0 средняя, верхняя 
[Ac As|Ci fib]
+16.7 +10.1 65 +19  1010.3  -0.4  747  282           
00 13.06.16 тихо ()   10 км  в посл. час ливневой дождь  10/8 600 м кучево-дожд., средняя 
[Cb cap|Ac und]
+14.6 +11.9 84 +18  1010.3  -0.1  747  283           
03 13.06.16 240 (ЮЗ) 10 км    8/8 1000 м кучево-дожд. 
[Cb calv]
+16.1 +12.7 80 +22  1010.5  0.3  747  282  +14.3    0.3    влажная 
06 13.06.16 270 (З) 10 км    4/3 1000 м средняя 
[Cu hum|Ac cuf]
+19.4 +10.3 56 +22  1010  -0.3  747  279           
09 13.06.16 260 (З) 10 км    8/5 1000 м верхняя 
[Cu med, cong|Cc]
+21.1 +5 35 +21  1009.8  0.1  747  279           
12 13.06.16 240 (ЮЗ) 10 км    8/8 1000 м кучево-дожд. 
[Cb cap]
+21 +4 33 +21  1009.4  -0.4  747  279           
15 13.06.16 290 (З) 10 км    3/0 средняя 
[Ac cast]
+20.6 +5 36 +21  1009.4  747  279    +21.6       
18 13.06.16 260 (З) 10 км    ясно 
+17.3 +5 44 +19  1010.9  1.3  748  283           
21 13.06.16 тихо ()   10 км    ясно 
+12.2 +7.4 72 +12  1012.1  0.9  748  287           
00 14.06.16 тихо ()   10 км    ясно 
+10.8 +6.8 76 +11  1013.1  0.9  749  289           
03 14.06.16 150 (ЮВ) 10 км    3/0 верхняя 
[Ci fib]
+15.6 +9 65 +17  1014.1  1.2  750  284  +10        сухая 
06 14.06.16 220 (ЮЗ) 10 км    8/4 600 м верхняя 
[Cu med, cong|Ci]
+19.6 +7.7 46 +21  1014.2  0.3  750  281           
09 14.06.16 250 (З) 10 км    8/4 600 м верхняя 
[Cu med, cong|Cs]
+21 +6.1 38 +21  1014  0.1  750  280           
12 14.06.16 300 (СЗ) 10 км    8/4 600 м верхняя 
[Cu med, cong|Cs]
+22.4 +6.4 35 +22  1013.9  0.1  750  278           
15 14.06.16 250 (З) 10 км    8/4 600 м средняя, верхняя 
[Cu med, cong|Ac trans|Cs]
+21.8 +7 38 +22  1013.5  -0.4  750  279    +22.5       
18 14.06.16 тихо ()   10 км    8/4 600 м средняя, верхняя 
[Sc diur, vesp|Ac lent|Ci sp]
+17.7 +9.6 59 +18  1014.3  0.6  750  282           
21 14.06.16 130 (ЮВ) 10 км    8/0 средняя, верхняя 
[Ac lent|Ci sp]
+15.2 +10 71 +18  1015.2  0.8  751  285           
00 15.06.16 140 (ЮВ) 10 км  слаб. ливневой дождь  10/8 300 м кучево-дожд., средняя 
[Cb cap|As op]
+14.8 +11.8 82 +20  1015.8  0.6  751  285           
03 15.06.16 120 (ЮВ) 10 км  {ливн. осадки}  10/6 600 м средняя 
[Sc diur, vesp|As op]
+16.7 +14.4 86 +26  1016.3  0.6  752  282  +14.6    0.3    влажная 
06 15.06.16 090 (В) 10 км    10/8 1000 м кучево-дожд., средняя 
[Cb cap|As op]
+19.1 +12.6 66 +25  1016.6  0.3  752  281           
09 15.06.16 090 (В) 10 км  в посл. час ливневой дождь  10/8 600 м кучево-дожд., средняя 
[Cb cap|As op]
+18.4 +12.9 70 +25  1016.9  0.3  752  281           
12 15.06.16 110 (В) 10 км  {ливн. осадки}  10/8 600 м средняя 
[Sc diur, vesp|As op]
+20.7 +13.2 62 +26  1016.3  -0.5  752  279           
15 15.06.16 060 (СВ) 10 км    8/3 1000 м средняя 
[Cu hum|Ac trans]
+21 +13.7 63 +27  1015.4  -0.8  751  278    +21.7  0.3     
18 15.06.16 080 (В) 10 км    8/4 1000 м кучево-дожд., средняя, верхняя 
[Cb calv|Ac trans|Ci sp]
+18.8 +13 69 +25  1016  0.5  752  281           
21 15.06.16 080 (В) 10 км    6/0 средняя, верхняя 
[Ac trans|Ci fib]
+17.5 +12.6 73 +23  1016.6  0.5  752  282           
00 16.06.16 090 (В) 10 км    8/8 600 м средняя 
[Sc diur, vesp|As op]
+16.7 +12.5 76 +23  1017.5  0.8  753  283           
03 16.06.16 090 (В) 10 км    1/0 верхняя 
[Ci fib]
+18.6 +12.8 69 +25  1017.7  0.4  753  281  +16.5        влажная 
06 16.06.16 100 (В) 10 км    ясно 
+22.7 +13.6 56 +29  1018.2  0.7  753  278           
09 16.06.16 070 (В) 10 км    8/8 1000 м 
[Cu hum]
+24.6 +13.1 49 +30  1018.3  0.2  753  276           
12 16.06.16 080 (В) 10 км    3/1 1000 м верхняя 
[Cu hum|Ci fib]
+26.1 +12.2 42 +30  1017.9  -0.4  753  275           
15 16.06.16 070 (В) 10 км    3/0 верхняя 
[Ci fib]
+25.6 +11.1 40 +28  1017.7  -0.2  753  275    +26.7       
18 16.06.16 090 (В) 10 км    3/0 средняя, верхняя 
[Ac trans|Ci fib]
+22.6 +10.9 48 +25  1018.8  0.9  754  279           
21 16.06.16 090 (В) 10 км    3/0 верхняя 
[Ci fib]
+20.1 +9.6 51 +21  1019.7  0.8  754  281           
00 17.06.16 100 (В) 10 км    5/0 верхняя 
[Ci fib]
+18.5 +9.5 56 +19  1020.2  0.4  755  283           
03 17.06.16 090 (В) 10 км    8/0 верхняя 
[Ci fib]
+20.4 +10.8 54 +22  1020.6  0.5  755  281  +17.7        сухая 
06 17.06.16 140 (ЮВ) 10 км    8/0 верхняя 
[Cs]
+24.4 +10.4 41 +26  1020.8  0.4  755  278           
09 17.06.16 100 (В) 10 км    8/0 верхняя 
[Cs]
+26 +8.3 33 +26  1020.9  0.2  755  277           
12 17.06.16 110 (В) 10 км    8/0 верхняя 
[Ci fib]
+27.1 +9.9 34 +28  1020  -0.9  755  275           
15 17.06.16 100 (В) 10 км    4/0 верхняя 
[Ci fib]
+26.5 +10.4 36 +28  1019.8  -0.2  755  275    +27.6       
18 17.06.16 110 (В) 10 км    6/0 верхняя 
[Cs]
+22.5 +11.4 49 +25  1020.1  0.1  755  279           
21 17.06.16 100 (В) 10 км    3/0 верхняя 
[Ci fib]
+21.3 +9.9 48 +22  1020.4  0.2  755  280           
00 18.06.16 100 (В) 10 км    9/0 средняя, верхняя 
[Ac trans|Cc]
+19.4 +11 58 +22  1020.4  0.1  755  282           
03 18.06.16 130 (ЮВ) 10 км    10/9 1000 м кучево-дожд., средняя 
[Cb cap|Ac trans]
+19.5 +12.6 64 +26  1021.9  1.4  756  282  +19.2        сухая 
06 18.06.16 100 (В) 10 км  слаб. ливневой дождь{гроза}  9/8 1000 м кучево-дожд., средняя 
[Cb calv|Ac trans]
+20.2 +14.9 72 +28  1021.8  0.1  756  281           
09 18.06.16 140 (ЮВ) 10 км  {ливн. осадки}  4/0 средняя, верхняя 
[Ac lent|Ci sp]
+24.8 +14.2 52 +32  1020.7  -1  755  276           
12 18.06.16 140 (ЮВ) 10 км    4/0 верхняя 
[Ci fib]
+26.1 +12.8 44 +31  1020.3  -0.3  755  275           
15 18.06.16 140 (ЮВ) 10 км    3/0 верхняя 
[Ci fib]
+25.2 +12.6 45 +30  1019.7  -0.6  755  276    +26.3       
18 18.06.16 120 (ЮВ) 10 км    ясно 
+21.7 +13.5 60 +28  1019.7  -0.2  754  279           
21 18.06.16 130 (ЮВ) 10 км    ясно 
+20.1 +13.5 66 +26  1019.8  754  280           
00 19.06.16 100 (В) 10 км    6/0 средняя, верхняя 
[Ac lent|Cs]
+18.5 +12.6 68 +24  1019.5  -0.3  754  282           
03 19.06.16 140 (ЮВ) 10 км    4/0 верхняя 
[Ci fib]
+20.9 +13.8 64 +27  1019.5  0.1  754  280  +18.2        сухая 
06 19.06.16 140 (ЮВ) 10 км    8/0 верхняя 
[Ci fib]
+24.3 +15.7 59 +34  1019.3  0.1  754  276           
09 19.06.16 160 (Ю) 10 км    3/0 верхняя 
[Ci fib]
+28.1 +16.6 50 +40  1019.1  0.1  754  272           
12 19.06.16 160 (Ю) 10 км    3/0 верхняя 
[Ci fib]
+29.3 +16.9 47 +41  1018.4  -0.6  754  271           
15 19.06.16 140 (ЮВ) 10 км    3/0 верхняя 
[Ci fib]
+29 +17.2 49 +42  1017.1  -1.2  753  270    +29.8       
18 19.06.16 100 (В) 10 км    3/0 верхняя 
[Ci ing]
+25.7 +17.5 61 +39  1018  0.8  753  274           
21 19.06.16 тихо ()   10 км    3/0 верхняя 
[Ci sp]
+23.1 +17.4 70 +36  1018.3  -0.1  753  276           
00 20.06.16 тихо ()   10 км    6/0 средняя, верхняя 
[Ac lent|Ci sp]
+21.5 +17.5 78 +35  1018.3  753  277           
03 20.06.16 280 (З) 10 км  слаб. ливневой дождь  8/8 600 м кучево-дожд., верхняя 
[Cb calv|Ci fib]
+24.5 +19.5 74 +42  1018.9  0.7  754  274  +20.8        сухая 
06 20.06.16 280 (З) 10 км  {ливн. осадки}  6/0 средняя 
[Ac trans]
+27.2 +19.6 63 +45  1018.8  754  272           
09 20.06.16 280 (З) 20000 м  сильн. гроза с градом{ливн. осадки}  8/8 600 м кучево-дожд. 
[Cb calv]
+30.6 +18.3 48 +45  1018  -0.6  753  269           
12 20.06.16 130 (ЮВ) 20000 м  в посл. час гроза{ливн. осадки}  9/8 600 м кучево-дожд., средняя 
[Cb calv|Ac trans]
+21.1 +18.5 85 +36  1020  1.5  755  278           
15 20.06.16 330 (СЗ) 20000 м  {гроза}  9/1 1000 м верхняя 
[Cu hum|Cs]
+25.3 +19.6 71 +43  1020  0.2  755  274    +30.6     
18 20.06.16 360 (С) 10 км    8/4 1000 м кучево-дожд., верхняя 
[Cb calv|Ci fib]
+24.1 +19 73 +40  1021  0.9  755  275           
21 20.06.16 330 (СЗ) 10 км    3/0 верхняя 
[Ci fib]
+21.7 +18.7 83 +37  1021.8  0.7  756  278           
00 21.06.16 330 (СЗ) 10 км    8/0 верхняя 
[Ci fib]
+20.4 +16.2 77 +31  1022.9  757  280           
03 21.06.16 330 (СЗ) 10 км    9/0 средняя, верхняя 
[Ac trans|Ci]
+20.6 +15.1 71 +29  1023.9  757  281  +19.8        влажная 
06 21.06.16 310 (СЗ) 20000 м    8/4 1000 м средняя, верхняя 
[Cu hum|Ac cast|Ci]
+25.5 +16.6 58 +37  1023.6  0.1  757  276           
09 21.06.16 350 (С) 20000 м    6/6 1000 м кучево-дожд. 
[Cb cap]
+27.8 +14 43 +35  1023.4  0.1  757  274           
12 21.06.16 310 (СЗ) 20000 м    3/3 1000 м 
[Cu hum]
+29 +10.9 33 +31  1022.7  -0.6  757  274           
15 21.06.16 320 (СЗ) 20000 м    5/0 средняя, верхняя 
[Ac lent|Ci fib]
+28.5 +10.2 32 +30  1022.1  -0.6  756  274    +29.2       
18 21.06.16 070 (В) 20000 м    8/0 верхняя 
[Cs]
+25.1 +12 44 +29  1022.3  756  277           
21 21.06.16 тихо ()   20000 м    8/0 верхняя 
[Cs]
+20.4 +13.3 64 +26  1022.5  756  281           
00 22.06.16 тихо ()   20000 м    9/0 верхняя 
[Cs]
+17.5 +13.4 77 +23  1022.7  -0.1  756  284           
03 22.06.16 тихо ()   20000 м    8/0 средняя, верхняя 
[Ac trans|Cs]
+25.4 +14.6 51 +33  1021.9  -0.5  756  276  +17.3        сухая 
06 22.06.16 250 (З) 10 км    3/0 средняя 
[Ac lent]
+26.8 +14.2 46 +34  1021.2  -0.5  756  274           
09 22.06.16 280 (З) 10 км    8/0 средняя, верхняя 
[Ac lent|Ci fib]
+28.4 +13.1 39 +34  1019.8  -1.4  755  273           
12 22.06.16 240 (ЮЗ) 10 км    10/0 средняя, верхняя 
[Ac lent|Cs]
+29 +10.6 32 +31  1018.6  -1.2  754  273           
15 22.06.16 230 (ЮЗ) 10 км    9/0 средняя 
[Ac As]
+27.5 +15.1 47 +36  1017  -1.6  753  272    +29.5       
18 22.06.16 260 (З) н/о    н/о 
+25.7 +16.4 56 +37  1015  -2  751  273           
21 22.06.16 270 (З) 10 км    10/8 600 м кучево-дожд., средняя 
[Cb cap|Ac As]
+23.9 +14.9 57 +32  1014.8  -0.3  751  275           
00 23.06.16 270 (З) 10 км    6/0 средняя 
[Ac As]
+21.1 +16.2 74 +32  1014.6  -0.3  751  277           
03 23.06.16 310 (СЗ) 20000 м    3/0 средняя 
[Ac cast]
+21.5 +16.2 72 +32  1014.5  751  277  +20.6        сухая 
06 23.06.16 270 (З) 20000 м    8/8 600 м кучево-дожд. 
[Cb calv]
+23.4 +15.6 62 +33  1014.8  0.3  751  275           
09 23.06.16 280 (З) 5-10{10}  20000 м    8/6 600 м кучево-дожд., средняя 
[Cb cap|Ac cuf]
+24.7 +14.3 52 +32  1014.5  -0.3  751  274           
12 23.06.16 320 (СЗ) 3-10{12}  20000 м  {ливн. осадки}  8/6 1350 м кучево-дожд., средняя, верхняя 
[Cb cap|Ac cuf|Ci ing]
+25.1 +14.2 51 +32  1014.7  0.2  751  274           
15 23.06.16 310 (СЗ) 2{10}  20000 м    6/3 600 м средняя 
[Cu hum|Ac cuf]
+24.7 +13.3 49 +31  1014.8  -0.1  751  275    +26.3     
18 23.06.16 310 (СЗ) 2{10}  10 км  в посл. час ливневой дождь  9/5 600 м средняя 
[Sc|Ac lent]
+21.2 +14.5 66 +29  1015.9  0.9  752  278           
21 23.06.16 280 (З) 10 км    ясно 
+19.4 +13.9 70 +28  1016.8  0.7  752  280           
00 24.06.16 290 (З) 10 км    4/0 верхняя 
[Ci fib]
+17.6 +13.4 76 +25  1016.7  0.1  752  282           
03 24.06.16 320 (СЗ) 10 км    ясно 
+19.6 +13.2 67 +27  1017.1  0.4  752  280  +17.3        сухая 
06 24.06.16 320 (СЗ) 20000 м    8/0 средняя, верхняя 
[Ac trans|Ci]
+23.6 +11.1 45 +26  1017.1  0.2  752  277           
09 24.06.16 350 (С) 20000 м    9/6 1000 м средняя, верхняя 
[Cu med, cong|Ac As|Ci]
+24.5 +9.3 38 +25  1016.5  -0.5  752  277           
12 24.06.16 340 (С) 20000 м    8/6 1000 м средняя, верхняя 
[Cu med, cong|Ac trans|Ci]
+26.1 +8.8 33 +26  1015.4  -1  751  275           
15 24.06.16 340 (С) 20000 м    8/5 1000 м кучево-дожд., средняя 
[Cb cap|Ac As]
+25.2 +8.2 34 +25  1015.1  -0.4  751  276    +26.3       
18 24.06.16 300 (СЗ) 10 км    9/6 1000 м средняя, верхняя 
[Sc diur, vesp|Ac As|Ci fib]
+21.5 +10.6 50 +23  1015.9  0.6  752  279           
21 24.06.16 330 (СЗ) 10 км  слаб. ливневой дождь  10/8 300 м кучево-дожд., средняя 
[Cb cap|Ac cuf]
+19.5 +10.6 56 +23  1016.6  0.6  752  281           
00 25.06.16 290 (З) 10 км  {ливн. осадки}  8/0 средняя 
[Ac As]
+17.1 +12.5 74 +24  1017  0.3  752  283           
03 25.06.16 360 (С) 10 км    9/0 средняя, верхняя 
[Ac trans|Ci fib]
+17.5 +12.3 72 +22  1017.3  0.3  752  283  +16.8        сухая 
06 25.06.16 330 (СЗ) 20000 м    8/0 средняя, верхняя 
[Ac lent|Ci fib]
+21.3 +12.2 56 +25  1017.5  0.3  753  279           
09 25.06.16 350 (С) 20000 м    8/6 1000 м кучево-дожд., верхняя 
[Cb cap|Ci fib]
+24.7 +7.7 34 +25  1017  -0.3  752  277           
12 25.06.16 340 (С) 20000 м    6/4 1000 м кучево-дожд., средняя, верхняя 
[Cb cap|Ac lent|Ci fib]
+24.6 +4.5 27 +25  1016.7  -0.3  752  277           
15 25.06.16 260 (З) 20000 м    6/6 1000 м кучево-дожд., средняя, верхняя 
[Cb cap|Ac lent|Ci fib]
+23.8 +7.3 35 +24  1016.1  -0.7  752  277    +25.2       
18 25.06.16 тихо ()   20000 м    8/6 1000 м кучево-дожд., средняя 
[Cb calv|Ac trans]
+19.2 +11.2 60 +22  1016.2  0.1  752  281           
21 25.06.16 тихо ()   20000 м    6/6 600 м 
[Cu hum]
+16.8 +10.4 66 +18  1015.8  -0.4  751  283           
00 26.06.16 130 (ЮВ) 20000 м    9/5 600 м кучево-дожд., средняя, верхняя 
[Cb cap|Ac trans|Ci fib]
+15.8 +9.8 67 +18  1015.4  -0.5  751  284           
03 26.06.16 120 (ЮВ) 20000 м  в посл. час ливневой дождь  10/10 600 м кучево-дожд. 
[Cb cap]
+16.8 +12.6 76 +23  1015.5  0.1  751  283  +15.4        влажная 
06 26.06.16 140 (ЮВ) 10 км  слаб. ливневой дождь  9/5 600 м кучево-дожд., средняя 
[Cb cap|Ac lent]
+17.9 +14.1 78 +26  1014.5  -0.9  750  281           
09 26.06.16 180 (Ю) 10 км    10/5 600 м средняя 
[Sc|Ac lent]
+19.8 +14.1 70 +28  1013.8  -0.6  750  279           
12 26.06.16 220 (ЮЗ) 10 км  {гроза, ливн. осадки}  9/5 600 м средняя 
[Sc|Ac lent]
+22 +15.7 67 +32  1012.2  -0.5  749  276           
15 26.06.16 180 (Ю) 10 км    1/0 средняя 
[Ac lent]
+22.5 +14.4 60 +30  1010.9  -1.2  748  275    +23     
18 26.06.16 260 (З) 10 км    4/0 средняя 
[Ac trans]
+19.4 +16.2 82 +32  1010.9  -0.2  748  278           
21 26.06.16 170 (Ю) 10 км    4/0 средняя, верхняя 
[Ac lent|Ci fib]
+17.3 +15.6 90 +29  1009.4  -1.5  747  280           
00 27.06.16 110 (В) 10 км    6/0 средняя, верхняя 
[Ac lent|Ci fib]
+15.8 +14.6 93 +25  1007.9  -1.6  745  281           
03 27.06.16 220 (ЮЗ) 10 км    10/6 600 м средняя 
[Sc|Ac trans]
+18.8 +15.7 82 +30  1006.2  -1.5  744  277  +15.7        влажная 
06 27.06.16 290 (З) 20000 м    10/4 1000 м средняя 
[Sc diur, vesp|As op]
+21.8 +15.5 67 +32  1005.1  -1  744  274           
09 27.06.16 280 (З) 20000 м    9/6 600 м кучево-дожд., верхняя 
[Cb cap|Cs]
+24.8 +14.2 52 +32  1003.5  -1.4  743  271           
12 27.06.16 300 (СЗ) 20000 м    8/4 600 м верхняя 
[Cu med, cong|Ci fib]
+25 +9.3 37 +25  1002.8  -0.8  742  272           
15 27.06.16 350 (С) 4{11}  20000 м    3/3 1000 м 
[Cu med, cong]
+21.7 +5.3 34 +22  1004.3  1.4  743  276    +25.2       
18 27.06.16 350 (С) 10 км    ясно 
+17.2 +6 48 +18  1006.2  1.6  744  281           
21 27.06.16 330 (СЗ) 10 км    ясно 
+13.9 +6.1 59 +15  1007  0.6  745  285           
00 28.06.16 330 (СЗ) 10 км    ясно 
+10.2 +4 65 +10  1008  0.8  745  289           
03 28.06.16 340 (С) 10 км    ясно 
+10.4 +4.1 65 +10  1008.6  0.6  746  289  +9.7        сухая 
06 28.06.16 320 (СЗ) 20000 м    9/9 1000 м 
[Sc diur, vesp]
+13.2 +3.6 52 +13  1008.3  -0.2  746  286           
09 28.06.16 320 (СЗ) 20000 м    9/9 1000 м 
[Sc diur, vesp]
+14.2 +4.8 53 +14  1008.8  0.5  746  285           
12 28.06.16 330 (СЗ) 20000 м    8/8 600 м 
[Cu hum]
+16.4 +4.7 46 +17  1009.5  0.8  747  283           
15 28.06.16 340 (С) 3{11}  20000 м    1/1 1000 м 
[Cu hum]
+16.6 +5.7 48 +17  1009.9  0.4  747  283    +17.5       
18 28.06.16 320 (СЗ) 10 км    ясно 
+14.3 +6.5 59 +15  1010.7  0.6  747  285           
21 28.06.16 310 (СЗ) 10 км    ясно 
+12.6 +7 69 +14  1011.5  0.8  748  287           
00 29.06.16 310 (СЗ) 10 км    ясно 
+11 +7.1 77 +12  1012.2  0.6  748  289           
03 29.06.16 360 (С) 10 км    ясно 
+12.8 +7.7 71 +13  1012.2  0.1  749  287  +10.5        сухая 
06 29.06.16 300 (СЗ) 20000 м    6/6 600 м 
[Sc diur, vesp]
+15.5 +8.6 63 +16  1011.8  -0.3  748  284           
09 29.06.16 320 (СЗ) 20000 м    8/8 1000 м 
[Sc diur, vesp]
+17.4 +7 50 +18  1011.7  0.1  748  282           
12 29.06.16 330 (СЗ) 20000 м    4/4 1000 м 
[Cu hum]
+20.8 +5.1 36 +21  1010.8  -0.7  748  279           
15 29.06.16 320 (СЗ) 20000 м    1/0 средняя 
[Ac cast]
+21.1 +4.7 34 +21  1010.6  0.1  748  279    +21.4       
18 29.06.16 320 (СЗ) 10 км    8/0 средняя 
[Ac trans]
+18.1 +5.9 45 +20  1011.1  0.4  748  282           
21 29.06.16 340 (С) 10 км    4/0 средняя 
[As op]
+15.2 +6.6 56 +17  1011.7  0.4  748  284           
00 30.06.16 280 (З) 10 км    1/0 средняя 
[As op]
+13.4 +7.8 69 +15  1011.9  0.1  748  286           
03 30.06.16 300 (СЗ) 10 км    ясно 
+14.7 +8.5 66 +15  1012  0.2  748  285  +13        сухая 
06 30.06.16 310 (СЗ) 20000 м    1/1 1000 м 
[Cu hum]
+19.4 +8.8 50 +20  1011.9  0.1  749  280           
09 30.06.16 330 (СЗ) 20000 м    9/9 900 м 
[Sc]
+20.4 +10.5 53 +22  1012.3  0.4  749  279           
12 30.06.16 360 (С) 20000 м    10/10 900 м 
[Sc]
+19.6 +10.7 56 +22  1013  0.6  749  280           
15 30.06.16 310 (СЗ) 20000 м    9/9 900 м 
[Sc]
+19.9 +10.9 56 +23  1013.3  0.3  750  280    +20.8       
18 30.06.16 350 (С) 10 км    10/10 300 м 
[Sc]
+18.7 +11.8 64 +24  1014.1  0.8  750  281           
21 30.06.16 070 (В) 10 км    9/9 600 м 
[Sc]
+16.2 +13 81 +22  1014.6  0.4  750  283           
00 01.07.16 040 (СВ) 10 км    10/10 600 м 
[Sc]
+15.3 +13.2 87 +23  1015.1  0.5  751  284           
03 01.07.16 010 (С) 10 км    10/10 600 м 
[Sc]
+16.1 +13.1 82 +23  1015.9  0.8  751  283  +15        сухая 
06 01.07.16 060 (СВ) 20000 м  {дождь}  10/10 800 м 
[Sc]
+17.5 +11.5 68 +21  1016.3  0.5  752  282           
09 01.07.16 350 (С) 20000 м    9/8 1260 м средняя 
[Sc|Ac As]
+19.6 +10.8 57 +23  1016.1  0.1  752  281           
12 01.07.16 010 (С) 20000 м    9/9 1440 м 
[Sc]
+20.7 +10.3 51 +22  1015.5  -0.6  751  280           
15 01.07.16 340 (С) 20000 м    10/10 1500 м 
[Sc]
+20.6 +10.6 53 +23  1015.3  -0.2  751  279    +21.3       
18 01.07.16 310 (СЗ) 10 км    ясно 
+18.9 +11.5 62 +23  1015.4  -0.1  751  281           
21 01.07.16 290 (З) 10 км    1/0 средняя 
[Ac lent]
+15.8 +12.1 79 +21  1015.4  -0.1  751  284           
00 02.07.16 290 (З) 10 км    3/0 средняя 
[Ac lent]
+16.3 +12.5 78 +22  1015.2  -0.2  751  283           
03 02.07.16 310 (СЗ) 20000 м    1/1 600 м 
[Sc]
+18.3 +12.5 69 +25  1015.1  751  281  +15.6        сухая 
Время (UTC), дата Ветер
(°,м/с) 
Видим.   Явления Облачность Т
(°С)
Тd
(°С)
f(%) Тe
(°С)
Pmin
(гПа)
dP
(гПа)
Po
(мм)
O2
(г/м3)
Тmin Tmax R s Состояние
почвы